Location: Platte
(43.3870°N, 98.8440°W)
Time: 05:26:50
(UTC-05:00)

CENTAUR R/B - Pass Details

Date: 21 May 2018
Orbit: 804 x 1384 km, 63.5° (Epoch: 19 June)

Event Time Altitude Azimuth Distance (km) Brightness Sun altitude
Exits shadow 22:42:24 17° 171° (S) 2,106 3.8 -15.3°
Maximum altitude 22:46:23 37° 113° (ESE) 1,442 3.0 -15.8°
Drops below altitude 10° 22:52:25 10° 49° (NE) 2,877 5.0 -16.5°
Sets 22:55:26 0° 42° (NE) 3,933 5.8 -16.8°
